Back to catalog

HIPPARCOS

AliveScienceGTO
NORAD 20169·PAYLOAD·🇪🇺 EU

Launched Aug 8, 1989 from Guiana Space Centre

Loading…

TLE

AgingSource: Space-Track

Epoch: Sep 14, 2026, 04:15 UTC

1 20169U 89062B   26257.17762866 -.00000044  00000-0  86910-3 0  9994
2 20169   6.8371 287.1015 7190170  49.2868 353.8352  2.26417982271371

Track HIPPARCOS in real time with AllMySat

Download on the App Store